Location: Neuvy Saint Sepulchre
(46.5953°N, 1.8122°E)
Time: 06:34:18
(UTC+02:00)

ISS - Pass Details

Date: 28 March 2019
Orbit: 408 x 410 km, 51.6° (Epoch: 23 April)

Event Time Altitude Azimuth Distance (km) Brightness Sun altitude
Rises 20:52:47 0° 280° (W) 2,336 1.6 -16.9°
Reaches altitude 10° 20:55:00 10° 291° (WNW) 1,475 0.3 -17.2°
Maximum altitude 20:58:02 32° 357° (N) 721 -2.4 -17.7°
Enters shadow 20:59:22 23° 41° (NE) 914 -2.2 -17.9°
